owner,sensor,date,latitude,longitude,vertical_datum,sea_water_practical_salinity,qcFlag 
TABS,ioos:station:wmo:42043:1,2011-06-01T00:00:00Z,28.9818,-94.9186,2.0,16.28,11111222 
TABS,ioos:station:wmo:42043:1,2011-06-01T00:30:00Z,28.9818,-94.9186,2.0,16.25,11111222 
TABS,ioos:station:wmo:42043:1,2011-06-01T01:00:00Z,28.9818,-94.9186,2.0,16.38,11111222 
TABS,ioos:station:wmo:42043:1,2011-06-01T01:30:00Z,28.9818,-94.9186,2.0,16.67,11111222 
TABS,ioos:station:wmo:42043:1,2011-06-01T02:00:00Z,28.9818,-94.9186,2.0,16.62,11111222 
TABS,ioos:station:wmo:42043:1,2011-06-01T02:30:00Z,28.9818,-94.9186,2.0,16.72,11111222 
TABS,ioos:station:wmo:42043:1,2011-06-01T03:00:00Z,28.9818,-94.9186,2.0,16.61,11111222 
TABS,ioos:station:wmo:42043:1,2011-06-01T03:30:00Z,28.9818,-94.9186,2.0,16.58,11111222 
TABS,ioos:station:wmo:42043:1,2011-06-01T04:00:00Z,28.9818,-94.9186,2.0,16.59,11111222 
TABS,ioos:station:wmo:42043:1,2011-06-01T04:30:00Z,28.9818,-94.9186,2.0,16.55,11111222 
TABS,ioos:station:wmo:42043:1,2011-06-01T05:00:00Z,28.9818,-94.9186,2.0,16.57,11111222 
TABS,ioos:station:wmo:42043:1,2011-06-01T05:30:00Z,28.9818,-94.9186,2.0,16.62,11111222 
TABS,ioos:station:wmo:42043:1,2011-06-01T06:00:00Z,28.9818,-94.9186,2.0,16.83,11111222 
TABS,ioos:station:wmo:42043:1,2011-06-01T06:30:00Z,28.9818,-94.9186,2.0,16.82,11111222 
TABS,ioos:station:wmo:42043:1,2011-06-01T07:00:00Z,28.9818,-94.9186,2.0,16.8,11111222 
TABS,ioos:station:wmo:42043:1,2011-06-01T07:30:00Z,28.9818,-94.9186,2.0,16.86,11111222 
TABS,ioos:station:wmo:42043:1,2011-06-01T08:00:00Z,28.9818,-94.9186,2.0,16.87,11111222 
TABS,ioos:station:wmo:42043:1,2011-06-01T08:30:00Z,28.9818,-94.9186,2.0,16.83,11111222 
TABS,ioos:station:wmo:42043:1,2011-06-01T09:00:00Z,28.9818,-94.9186,2.0,16.89,11111222 
TABS,ioos:station:wmo:42043:1,2011-06-01T09:30:00Z,28.9818,-94.9186,2.0,16.76,11111222 
TABS,ioos:station:wmo:42043:1,2011-06-01T10:00:00Z,28.9818,-94.9186,2.0,16.91,11111222 
TABS,ioos:station:wmo:42043:1,2011-06-01T10:30:00Z,28.9818,-94.9186,2.0,16.47,11111222 
TABS,ioos:station:wmo:42043:1,2011-06-01T11:00:00Z,28.9818,-94.9186,2.0,16.18,11111222 
TABS,ioos:station:wmo:42043:1,2011-06-01T11:30:00Z,28.9818,-94.9186,2.0,16.12,11111222 
TABS,ioos:station:wmo:42043:1,2011-06-01T12:00:00Z,28.9818,-94.9186,2.0,16.18,11111222 
TABS,ioos:station:wmo:42043:1,2011-06-01T12:30:00Z,28.9818,-94.9186,2.0,16.16,11111222 
TABS,ioos:station:wmo:42043:1,2011-06-01T13:00:00Z,28.9818,-94.9186,2.0,15.96,11111222 
TABS,ioos:station:wmo:42043:1,2011-06-01T13:30:00Z,28.9818,-94.9186,2.0,15.92,11111222 
TABS,ioos:station:wmo:42043:1,2011-06-01T14:00:00Z,28.9818,-94.9186,2.0,15.84,11111222 
TABS,ioos:station:wmo:42043:1,2011-06-01T14:30:00Z,28.9818,-94.9186,2.0,15.7,11111222 
TABS,ioos:station:wmo:42043:1,2011-06-01T15:00:00Z,28.9818,-94.9186,2.0,15.55,11111222 
TABS,ioos:station:wmo:42043:1,2011-06-01T15:30:00Z,28.9818,-94.9186,2.0,15.52,11111222 
TABS,ioos:station:wmo:42043:1,2011-06-01T16:00:00Z,28.9818,-94.9186,2.0,15.53,11111222 
TABS,ioos:station:wmo:42043:1,2011-06-01T16:30:00Z,28.9818,-94.9186,2.0,15.62,11111222 
TABS,ioos:station:wmo:42043:1,2011-06-01T17:00:00Z,28.9818,-94.9186,2.0,15.65,11111222 
TABS,ioos:station:wmo:42043:1,2011-06-01T17:30:00Z,28.9818,-94.9186,2.0,15.62,11111222 
TABS,ioos:station:wmo:42043:1,2011-06-01T18:00:00Z,28.9818,-94.9186,2.0,15.65,11111222 
TABS,ioos:station:wmo:42043:1,2011-06-01T18:30:00Z,28.9818,-94.9186,2.0,15.34,11111222 
TABS,ioos:station:wmo:42043:1,2011-06-01T19:00:00Z,28.9818,-94.9186,2.0,15.31,11111222 
TABS,ioos:station:wmo:42043:1,2011-06-01T19:30:00Z,28.9818,-94.9186,2.0,15.27,11111222 
TABS,ioos:station:wmo:42043:1,2011-06-01T20:00:00Z,28.9818,-94.9186,2.0,15.29,11111222 
TABS,ioos:station:wmo:42043:1,2011-06-01T20:30:00Z,28.9818,-94.9186,2.0,15.26,11111222 
TABS,ioos:station:wmo:42043:1,2011-06-01T21:00:00Z,28.9818,-94.9186,2.0,15.29,11111222 
TABS,ioos:station:wmo:42043:1,2011-06-01T21:30:00Z,28.9818,-94.9186,2.0,13.9,11111222 
TABS,ioos:station:wmo:42043:1,2011-06-01T22:00:00Z,28.9818,-94.9186,2.0,13.97,11111222 
TABS,ioos:station:wmo:42043:1,2011-06-01T22:30:00Z,28.9818,-94.9186,2.0,13.59,11111222 
TABS,ioos:station:wmo:42043:1,2011-06-01T23:00:00Z,28.9818,-94.9186,2.0,13.73,11111222 
TABS,ioos:station:wmo:42043:1,2011-06-01T23:30:00Z,28.9818,-94.9186,2.0,13.89,11111222 
TABS,ioos:station:wmo:42043:1,2011-06-02T00:00:00Z,28.9818,-94.9186,2.0,13.77,11111222 
TABS,ioos:station:wmo:42043:1,2011-06-02T00:30:00Z,28.9818,-94.9186,2.0,14.02,11111222 
TABS,ioos:station:wmo:42043:1,2011-06-02T01:00:00Z,28.9818,-94.9186,2.0,13.99,11111222 
TABS,ioos:station:wmo:42043:1,2011-06-02T01:30:00Z,28.9818,-94.9186,2.0,13.72,11111222 
TABS,ioos:station:wmo:42043:1,2011-06-02T02:00:00Z,28.9818,-94.9186,2.0,13.64,11111222 
TABS,ioos:station:wmo:42043:1,2011-06-02T02:30:00Z,28.9818,-94.9186,2.0,14.0,11111222 
TABS,ioos:station:wmo:42043:1,2011-06-02T03:00:00Z,28.9818,-94.9186,2.0,13.94,11111222 
TABS,ioos:station:wmo:42043:1,2011-06-02T03:30:00Z,28.9818,-94.9186,2.0,13.99,11111222 
TABS,ioos:station:wmo:42043:1,2011-06-02T04:00:00Z,28.9818,-94.9186,2.0,13.95,11111222 
TABS,ioos:station:wmo:42043:1,2011-06-02T04:30:00Z,28.9818,-94.9186,2.0,13.98,11111222 
TABS,ioos:station:wmo:42043:1,2011-06-02T05:00:00Z,28.9818,-94.9186,2.0,13.99,11111222 
TABS,ioos:station:wmo:42043:1,2011-06-02T05:30:00Z,28.9818,-94.9186,2.0,14.1,11111222 
TABS,ioos:station:wmo:42043:1,2011-06-02T06:00:00Z,28.9818,-94.9186,2.0,14.06,11111222 
TABS,ioos:station:wmo:42043:1,2011-06-02T06:30:00Z,28.9818,-94.9186,2.0,14.26,11111222 
TABS,ioos:station:wmo:42043:1,2011-06-02T07:00:00Z,28.9818,-94.9186,2.0,14.26,11111222 
TABS,ioos:station:wmo:42043:1,2011-06-02T07:30:00Z,28.9818,-94.9186,2.0,14.14,11111222 
TABS,ioos:station:wmo:42043:1,2011-06-02T08:00:00Z,28.9818,-94.9186,2.0,14.37,11111222 
TABS,ioos:station:wmo:42043:1,2011-06-02T08:30:00Z,28.9818,-94.9186,2.0,14.59,11111222 
TABS,ioos:station:wmo:42043:1,2011-06-02T09:00:00Z,28.9818,-94.9186,2.0,14.41,11111222 
TABS,ioos:station:wmo:42043:1,2011-06-02T09:30:00Z,28.9818,-94.9186,2.0,14.48,11111222 
TABS,ioos:station:wmo:42043:1,2011-06-02T10:00:00Z,28.9818,-94.9186,2.0,14.37,11111222 
TABS,ioos:station:wmo:42043:1,2011-06-02T10:30:00Z,28.9818,-94.9186,2.0,14.33,11111222 
TABS,ioos:station:wmo:42043:1,2011-06-02T11:00:00Z,28.9818,-94.9186,2.0,14.41,11111222 
TABS,ioos:station:wmo:42043:1,2011-06-02T11:30:00Z,28.9818,-94.9186,2.0,14.69,11111222 
TABS,ioos:station:wmo:42043:1,2011-06-02T12:00:00Z,28.9818,-94.9186,2.0,14.43,11111222 
TABS,ioos:station:wmo:42043:1,2011-06-02T12:30:00Z,28.9818,-94.9186,2.0,14.44,11111222 
TABS,ioos:station:wmo:42043:1,2011-06-02T13:00:00Z,28.9818,-94.9186,2.0,14.34,11111222 
TABS,ioos:station:wmo:42043:1,2011-06-02T13:30:00Z,28.9818,-94.9186,2.0,14.51,11111222 
TABS,ioos:station:wmo:42043:1,2011-06-02T14:00:00Z,28.9818,-94.9186,2.0,14.7,11111222 
TABS,ioos:station:wmo:42043:1,2011-06-02T14:30:00Z,28.9818,-94.9186,2.0,14.76,11111222 
TABS,ioos:station:wmo:42043:1,2011-06-02T15:00:00Z,28.9818,-94.9186,2.0,14.77,11111222 
TABS,ioos:station:wmo:42043:1,2011-06-02T15:30:00Z,28.9818,-94.9186,2.0,14.93,11111222 
TABS,ioos:station:wmo:42043:1,2011-06-02T16:00:00Z,28.9818,-94.9186,2.0,14.88,11111222 
TABS,ioos:station:wmo:42043:1,2011-06-02T16:30:00Z,28.9818,-94.9186,2.0,14.92,11111222 
TABS,ioos:station:wmo:42043:1,2011-06-02T17:00:00Z,28.9818,-94.9186,2.0,14.99,11111222 
TABS,ioos:station:wmo:42043:1,2011-06-02T17:30:00Z,28.9818,-94.9186,2.0,15.0,11111222 
TABS,ioos:station:wmo:42043:1,2011-06-02T18:00:00Z,28.9818,-94.9186,2.0,15.06,11111222 
TABS,ioos:station:wmo:42043:1,2011-06-02T18:30:00Z,28.9818,-94.9186,2.0,15.23,11111222 
TABS,ioos:station:wmo:42043:1,2011-06-02T19:00:00Z,28.9818,-94.9186,2.0,15.2,11111222 
TABS,ioos:station:wmo:42043:1,2011-06-02T19:30:00Z,28.9818,-94.9186,2.0,15.13,11111222 
TABS,ioos:station:wmo:42043:1,2011-06-02T20:00:00Z,28.9818,-94.9186,2.0,15.15,11111222 
TABS,ioos:station:wmo:42043:1,2011-06-02T20:30:00Z,28.9818,-94.9186,2.0,15.22,11111222 
TABS,ioos:station:wmo:42043:1,2011-06-02T21:00:00Z,28.9818,-94.9186,2.0,15.2,11111222 
TABS,ioos:station:wmo:42043:1,2011-06-02T21:30:00Z,28.9818,-94.9186,2.0,15.12,11111222 
TABS,ioos:station:wmo:42043:1,2011-06-02T22:00:00Z,28.9818,-94.9186,2.0,15.12,11111222 
TABS,ioos:station:wmo:42043:1,2011-06-02T22:30:00Z,28.9818,-94.9186,2.0,15.14,11111222 
TABS,ioos:station:wmo:42043:1,2011-06-02T23:00:00Z,28.9818,-94.9186,2.0,15.14,11111222 
TABS,ioos:station:wmo:42043:1,2011-06-02T23:30:00Z,28.9818,-94.9186,2.0,14.97,11111222 
TABS,ioos:station:wmo:42043:1,2011-06-03T00:00:00Z,28.9818,-94.9186,2.0,15.01,11111222 
TABS,ioos:station:wmo:42043:1,2011-06-03T00:30:00Z,28.9818,-94.9186,2.0,14.93,11111222 
TABS,ioos:station:wmo:42043:1,2011-06-03T01:00:00Z,28.9818,-94.9186,2.0,14.06,11111222 
TABS,ioos:station:wmo:42043:1,2011-06-03T01:30:00Z,28.9818,-94.9186,2.0,14.21,11111222 
TABS,ioos:station:wmo:42043:1,2011-06-03T02:00:00Z,28.9818,-94.9186,2.0,14.22,11111222 
TABS,ioos:station:wmo:42043:1,2011-06-03T02:30:00Z,28.9818,-94.9186,2.0,13.86,11111222 
TABS,ioos:station:wmo:42043:1,2011-06-03T03:00:00Z,28.9818,-94.9186,2.0,13.73,11111222 
TABS,ioos:station:wmo:42043:1,2011-06-03T03:30:00Z,28.9818,-94.9186,2.0,14.02,11111222 
TABS,ioos:station:wmo:42043:1,2011-06-03T04:00:00Z,28.9818,-94.9186,2.0,13.61,11111222 
TABS,ioos:station:wmo:42043:1,2011-06-03T04:30:00Z,28.9818,-94.9186,2.0,13.47,11111222 
TABS,ioos:station:wmo:42043:1,2011-06-03T05:00:00Z,28.9818,-94.9186,2.0,13.4,11111222 
TABS,ioos:station:wmo:42043:1,2011-06-03T05:30:00Z,28.9818,-94.9186,2.0,13.57,11111222 
TABS,ioos:station:wmo:42043:1,2011-06-03T06:00:00Z,28.9818,-94.9186,2.0,13.43,11111222 
TABS,ioos:station:wmo:42043:1,2011-06-03T06:30:00Z,28.9818,-94.9186,2.0,13.39,11111222 
TABS,ioos:station:wmo:42043:1,2011-06-03T07:00:00Z,28.9818,-94.9186,2.0,13.48,11111222 
TABS,ioos:station:wmo:42043:1,2011-06-03T07:30:00Z,28.9818,-94.9186,2.0,13.24,11111222 
TABS,ioos:station:wmo:42043:1,2011-06-03T08:00:00Z,28.9818,-94.9186,2.0,13.68,11111222 
TABS,ioos:station:wmo:42043:1,2011-06-03T08:30:00Z,28.9818,-94.9186,2.0,13.65,11111222 
TABS,ioos:station:wmo:42043:1,2011-06-03T09:00:00Z,28.9818,-94.9186,2.0,13.66,11111222 
TABS,ioos:station:wmo:42043:1,2011-06-03T09:30:00Z,28.9818,-94.9186,2.0,13.84,11111222 
TABS,ioos:station:wmo:42043:1,2011-06-03T10:00:00Z,28.9818,-94.9186,2.0,13.81,11111222 
TABS,ioos:station:wmo:42043:1,2011-06-03T10:30:00Z,28.9818,-94.9186,2.0,13.92,11111222 
TABS,ioos:station:wmo:42043:1,2011-06-03T11:00:00Z,28.9818,-94.9186,2.0,13.66,11111222 
TABS,ioos:station:wmo:42043:1,2011-06-03T11:30:00Z,28.9818,-94.9186,2.0,13.38,11111222 
TABS,ioos:station:wmo:42043:1,2011-06-03T12:00:00Z,28.9818,-94.9186,2.0,13.53,11111222 
TABS,ioos:station:wmo:42043:1,2011-06-03T12:30:00Z,28.9818,-94.9186,2.0,13.42,11111222 
TABS,ioos:station:wmo:42043:1,2011-06-03T13:00:00Z,28.9818,-94.9186,2.0,13.42,11111222 
TABS,ioos:station:wmo:42043:1,2011-06-03T13:30:00Z,28.9818,-94.9186,2.0,13.44,11111222 
TABS,ioos:station:wmo:42043:1,2011-06-03T14:00:00Z,28.9818,-94.9186,2.0,13.41,11111222 
TABS,ioos:station:wmo:42043:1,2011-06-03T14:30:00Z,28.9818,-94.9186,2.0,13.4,11111222 
TABS,ioos:station:wmo:42043:1,2011-06-03T15:00:00Z,28.9818,-94.9186,2.0,13.52,11111222 
TABS,ioos:station:wmo:42043:1,2011-06-03T15:30:00Z,28.9818,-94.9186,2.0,13.54,11111222 
TABS,ioos:station:wmo:42043:1,2011-06-03T16:00:00Z,28.9818,-94.9186,2.0,13.72,11111222 
TABS,ioos:station:wmo:42043:1,2011-06-03T16:30:00Z,28.9818,-94.9186,2.0,13.66,11111222 
TABS,ioos:station:wmo:42043:1,2011-06-03T17:00:00Z,28.9818,-94.9186,2.0,13.67,11111222 
TABS,ioos:station:wmo:42043:1,2011-06-03T17:30:00Z,28.9818,-94.9186,2.0,13.77,11111222 
TABS,ioos:station:wmo:42043:1,2011-06-03T18:00:00Z,28.9818,-94.9186,2.0,13.55,11111222 
TABS,ioos:station:wmo:42043:1,2011-06-03T18:30:00Z,28.9818,-94.9186,2.0,13.54,11111222 
TABS,ioos:station:wmo:42043:1,2011-06-03T19:00:00Z,28.9818,-94.9186,2.0,13.55,11111222 
TABS,ioos:station:wmo:42043:1,2011-06-03T19:30:00Z,28.9818,-94.9186,2.0,13.51,11111222 
TABS,ioos:station:wmo:42043:1,2011-06-03T20:00:00Z,28.9818,-94.9186,2.0,13.51,11111222 
TABS,ioos:station:wmo:42043:1,2011-06-03T20:30:00Z,28.9818,-94.9186,2.0,13.6,11111222 
TABS,ioos:station:wmo:42043:1,2011-06-03T21:00:00Z,28.9818,-94.9186,2.0,13.57,11111222 
TABS,ioos:station:wmo:42043:1,2011-06-03T21:30:00Z,28.9818,-94.9186,2.0,13.49,11111222 
TABS,ioos:station:wmo:42043:1,2011-06-03T22:00:00Z,28.9818,-94.9186,2.0,13.54,11111222 
TABS,ioos:station:wmo:42043:1,2011-06-03T22:30:00Z,28.9818,-94.9186,2.0,13.54,11111222 
TABS,ioos:station:wmo:42043:1,2011-06-03T23:00:00Z,28.9818,-94.9186,2.0,13.47,11111222 
TABS,ioos:station:wmo:42043:1,2011-06-03T23:30:00Z,28.9818,-94.9186,2.0,13.55,11111222 
TABS,ioos:station:wmo:42043:1,2011-06-04T00:00:00Z,28.9818,-94.9186,2.0,13.65,11111222 
TABS,ioos:station:wmo:42043:1,2011-06-04T00:30:00Z,28.9818,-94.9186,2.0,13.74,11111222 
TABS,ioos:station:wmo:42043:1,2011-06-04T01:00:00Z,28.9818,-94.9186,2.0,13.65,11111222 
TABS,ioos:station:wmo:42043:1,2011-06-04T01:30:00Z,28.9818,-94.9186,2.0,13.94,11111222 
TABS,ioos:station:wmo:42043:1,2011-06-04T02:00:00Z,28.9818,-94.9186,2.0,14.18,11111222 
TABS,ioos:station:wmo:42043:1,2011-06-04T02:30:00Z,28.9818,-94.9186,2.0,14.12,11111222 
TABS,ioos:station:wmo:42043:1,2011-06-04T03:00:00Z,28.9818,-94.9186,2.0,14.19,11111222 
TABS,ioos:station:wmo:42043:1,2011-06-04T03:30:00Z,28.9818,-94.9186,2.0,14.0,11111222 
TABS,ioos:station:wmo:42043:1,2011-06-04T04:00:00Z,28.9818,-94.9186,2.0,13.94,11111222 
TABS,ioos:station:wmo:42043:1,2011-06-04T04:30:00Z,28.9818,-94.9186,2.0,14.29,11111222 
TABS,ioos:station:wmo:42043:1,2011-06-04T05:00:00Z,28.9818,-94.9186,2.0,14.07,11111222 
TABS,ioos:station:wmo:42043:1,2011-06-04T05:30:00Z,28.9818,-94.9186,2.0,13.99,11111222 
TABS,ioos:station:wmo:42043:1,2011-06-04T06:00:00Z,28.9818,-94.9186,2.0,13.96,11111222 
TABS,ioos:station:wmo:42043:1,2011-06-04T06:30:00Z,28.9818,-94.9186,2.0,13.86,11111222 
TABS,ioos:station:wmo:42043:1,2011-06-04T07:00:00Z,28.9818,-94.9186,2.0,13.81,11111222 
TABS,ioos:station:wmo:42043:1,2011-06-04T07:30:00Z,28.9818,-94.9186,2.0,13.85,11111222 
TABS,ioos:station:wmo:42043:1,2011-06-04T08:00:00Z,28.9818,-94.9186,2.0,13.84,11111222 
TABS,ioos:station:wmo:42043:1,2011-06-04T08:30:00Z,28.9818,-94.9186,2.0,13.78,11111222 
TABS,ioos:station:wmo:42043:1,2011-06-04T09:00:00Z,28.9818,-94.9186,2.0,13.82,11111222 
TABS,ioos:station:wmo:42043:1,2011-06-04T09:30:00Z,28.9818,-94.9186,2.0,13.78,11111222 
TABS,ioos:station:wmo:42043:1,2011-06-04T10:00:00Z,28.9818,-94.9186,2.0,13.78,11111222 
TABS,ioos:station:wmo:42043:1,2011-06-04T10:30:00Z,28.9818,-94.9186,2.0,13.43,11111222 
TABS,ioos:station:wmo:42043:1,2011-06-04T11:00:00Z,28.9818,-94.9186,2.0,13.19,11111222 
TABS,ioos:station:wmo:42043:1,2011-06-04T11:30:00Z,28.9818,-94.9186,2.0,13.0,11111222 
TABS,ioos:station:wmo:42043:1,2011-06-04T12:00:00Z,28.9818,-94.9186,2.0,13.12,11111222 
TABS,ioos:station:wmo:42043:1,2011-06-04T12:30:00Z,28.9818,-94.9186,2.0,13.05,11111222 
TABS,ioos:station:wmo:42043:1,2011-06-04T13:00:00Z,28.9818,-94.9186,2.0,13.25,11111222 
TABS,ioos:station:wmo:42043:1,2011-06-04T13:30:00Z,28.9818,-94.9186,2.0,13.21,11111222 
TABS,ioos:station:wmo:42043:1,2011-06-04T14:00:00Z,28.9818,-94.9186,2.0,13.3,11111222 
TABS,ioos:station:wmo:42043:1,2011-06-04T14:30:00Z,28.9818,-94.9186,2.0,13.36,11111222 
TABS,ioos:station:wmo:42043:1,2011-06-04T15:00:00Z,28.9818,-94.9186,2.0,13.25,11111222 
TABS,ioos:station:wmo:42043:1,2011-06-04T15:30:00Z,28.9818,-94.9186,2.0,13.46,11111222 
TABS,ioos:station:wmo:42043:1,2011-06-04T16:00:00Z,28.9818,-94.9186,2.0,13.23,11111222 
TABS,ioos:station:wmo:42043:1,2011-06-04T16:30:00Z,28.9818,-94.9186,2.0,13.22,11111222 
TABS,ioos:station:wmo:42043:1,2011-06-04T17:00:00Z,28.9818,-94.9186,2.0,13.39,11111222 
TABS,ioos:station:wmo:42043:1,2011-06-04T17:30:00Z,28.9818,-94.9186,2.0,13.38,11111222 
TABS,ioos:station:wmo:42043:1,2011-06-04T18:00:00Z,28.9818,-94.9186,2.0,13.53,11111222 
TABS,ioos:station:wmo:42043:1,2011-06-04T18:30:00Z,28.9818,-94.9186,2.0,13.58,11111222 
TABS,ioos:station:wmo:42043:1,2011-06-04T19:00:00Z,28.9818,-94.9186,2.0,13.45,11111222 
TABS,ioos:station:wmo:42043:1,2011-06-04T19:30:00Z,28.9818,-94.9186,2.0,13.31,11111222 
TABS,ioos:station:wmo:42043:1,2011-06-04T20:00:00Z,28.9818,-94.9186,2.0,13.26,11111222 
TABS,ioos:station:wmo:42043:1,2011-06-04T20:30:00Z,28.9818,-94.9186,2.0,13.21,11111222 
TABS,ioos:station:wmo:42043:1,2011-06-05T00:00:00Z,28.9818,-94.9186,2.0,12.53,11111222 
TABS,ioos:station:wmo:42043:1,2011-06-05T01:00:00Z,28.9818,-94.9186,2.0,12.32,11111222 
TABS,ioos:station:wmo:42043:1,2011-06-05T01:30:00Z,28.9818,-94.9186,2.0,12.39,11111222 
TABS,ioos:station:wmo:42043:1,2011-06-05T02:00:00Z,28.9818,-94.9186,2.0,12.31,11111222 
TABS,ioos:station:wmo:42043:1,2011-06-05T02:30:00Z,28.9818,-94.9186,2.0,12.32,11111222 
TABS,ioos:station:wmo:42043:1,2011-06-05T03:00:00Z,28.9818,-94.9186,2.0,12.28,11111222 
TABS,ioos:station:wmo:42043:1,2011-06-05T03:30:00Z,28.9818,-94.9186,2.0,12.32,11111222 
TABS,ioos:station:wmo:42043:1,2011-06-05T04:00:00Z,28.9818,-94.9186,2.0,12.45,11111222 
TABS,ioos:station:wmo:42043:1,2011-06-05T04:30:00Z,28.9818,-94.9186,2.0,12.37,11111222 
TABS,ioos:station:wmo:42043:1,2011-06-05T05:00:00Z,28.9818,-94.9186,2.0,12.35,11111222 
TABS,ioos:station:wmo:42043:1,2011-06-05T05:30:00Z,28.9818,-94.9186,2.0,12.43,11111222 
TABS,ioos:station:wmo:42043:1,2011-06-05T06:00:00Z,28.9818,-94.9186,2.0,12.41,11111222 
TABS,ioos:station:wmo:42043:1,2011-06-05T06:30:00Z,28.9818,-94.9186,2.0,12.38,11111222 
TABS,ioos:station:wmo:42043:1,2011-06-05T07:00:00Z,28.9818,-94.9186,2.0,12.46,11111222 
TABS,ioos:station:wmo:42043:1,2011-06-05T07:30:00Z,28.9818,-94.9186,2.0,12.33,11111222 
TABS,ioos:station:wmo:42043:1,2011-06-05T08:00:00Z,28.9818,-94.9186,2.0,12.23,11111222 
TABS,ioos:station:wmo:42043:1,2011-06-05T08:30:00Z,28.9818,-94.9186,2.0,12.27,11111222 
TABS,ioos:station:wmo:42043:1,2011-06-05T09:00:00Z,28.9818,-94.9186,2.0,12.34,11111222 
TABS,ioos:station:wmo:42043:1,2011-06-05T09:30:00Z,28.9818,-94.9186,2.0,12.25,11111222 
TABS,ioos:station:wmo:42043:1,2011-06-05T10:00:00Z,28.9818,-94.9186,2.0,12.34,11111222 
TABS,ioos:station:wmo:42043:1,2011-06-05T10:30:00Z,28.9818,-94.9186,2.0,12.32,11111222 
TABS,ioos:station:wmo:42043:1,2011-06-05T11:00:00Z,28.9818,-94.9186,2.0,12.22,11111222 
TABS,ioos:station:wmo:42043:1,2011-06-05T11:30:00Z,28.9818,-94.9186,2.0,12.57,11111222 
TABS,ioos:station:wmo:42043:1,2011-06-05T12:00:00Z,28.9818,-94.9186,2.0,12.8,11111222 
TABS,ioos:station:wmo:42043:1,2011-06-05T12:30:00Z,28.9818,-94.9186,2.0,13.22,11111222 
TABS,ioos:station:wmo:42043:1,2011-06-05T13:00:00Z,28.9818,-94.9186,2.0,13.41,11111222 
TABS,ioos:station:wmo:42043:1,2011-06-05T13:30:00Z,28.9818,-94.9186,2.0,13.47,11111222 
TABS,ioos:station:wmo:42043:1,2011-06-05T14:00:00Z,28.9818,-94.9186,2.0,13.33,11111222 
TABS,ioos:station:wmo:42043:1,2011-06-05T14:30:00Z,28.9818,-94.9186,2.0,13.0,11111222 
TABS,ioos:station:wmo:42043:1,2011-06-05T15:00:00Z,28.9818,-94.9186,2.0,12.87,11111222 
TABS,ioos:station:wmo:42043:1,2011-06-05T15:30:00Z,28.9818,-94.9186,2.0,12.89,11111222 
TABS,ioos:station:wmo:42043:1,2011-06-05T16:00:00Z,28.9818,-94.9186,2.0,12.89,11111222 
TABS,ioos:station:wmo:42043:1,2011-06-05T16:30:00Z,28.9818,-94.9186,2.0,12.9,11111222 
TABS,ioos:station:wmo:42043:1,2011-06-05T17:00:00Z,28.9818,-94.9186,2.0,12.78,11111222 
TABS,ioos:station:wmo:42043:1,2011-06-05T17:30:00Z,28.9818,-94.9186,2.0,12.7,11111222 
TABS,ioos:station:wmo:42043:1,2011-06-05T18:00:00Z,28.9818,-94.9186,2.0,12.72,11111222 
TABS,ioos:station:wmo:42043:1,2011-06-05T18:30:00Z,28.9818,-94.9186,2.0,12.73,11111222 
TABS,ioos:station:wmo:42043:1,2011-06-05T19:00:00Z,28.9818,-94.9186,2.0,12.84,11111222 
TABS,ioos:station:wmo:42043:1,2011-06-05T19:30:00Z,28.9818,-94.9186,2.0,12.77,11111222 
TABS,ioos:station:wmo:42043:1,2011-06-05T20:00:00Z,28.9818,-94.9186,2.0,12.9,11111222 
TABS,ioos:station:wmo:42043:1,2011-06-05T20:30:00Z,28.9818,-94.9186,2.0,12.89,11111222 
TABS,ioos:station:wmo:42043:1,2011-06-05T21:00:00Z,28.9818,-94.9186,2.0,12.78,11111222 
TABS,ioos:station:wmo:42043:1,2011-06-05T21:30:00Z,28.9818,-94.9186,2.0,12.83,11111222 
TABS,ioos:station:wmo:42043:1,2011-06-05T22:00:00Z,28.9818,-94.9186,2.0,12.98,11111222 
TABS,ioos:station:wmo:42043:1,2011-06-05T22:30:00Z,28.9818,-94.9186,2.0,12.88,11111222 
TABS,ioos:station:wmo:42043:1,2011-06-05T23:00:00Z,28.9818,-94.9186,2.0,12.96,11111222 
TABS,ioos:station:wmo:42043:1,2011-06-05T23:30:00Z,28.9818,-94.9186,2.0,12.82,11111222 
TABS,ioos:station:wmo:42043:1,2011-06-06T00:00:00Z,28.9818,-94.9186,2.0,12.75,11111222 
TABS,ioos:station:wmo:42043:1,2011-06-06T00:30:00Z,28.9818,-94.9186,2.0,12.85,11111222 
TABS,ioos:station:wmo:42043:1,2011-06-06T01:00:00Z,28.9818,-94.9186,2.0,13.07,11111222 
TABS,ioos:station:wmo:42043:1,2011-06-06T01:30:00Z,28.9818,-94.9186,2.0,13.3,11111222 
TABS,ioos:station:wmo:42043:1,2011-06-06T02:00:00Z,28.9818,-94.9186,2.0,13.9,11111222 
TABS,ioos:station:wmo:42043:1,2011-06-06T02:30:00Z,28.9818,-94.9186,2.0,13.86,11111222 
TABS,ioos:station:wmo:42043:1,2011-06-06T03:00:00Z,28.9818,-94.9186,2.0,13.87,11111222 
TABS,ioos:station:wmo:42043:1,2011-06-06T03:30:00Z,28.9818,-94.9186,2.0,13.97,11111222 
TABS,ioos:station:wmo:42043:1,2011-06-06T04:00:00Z,28.9818,-94.9186,2.0,14.04,11111222 
TABS,ioos:station:wmo:42043:1,2011-06-06T04:30:00Z,28.9818,-94.9186,2.0,14.03,11111222 
TABS,ioos:station:wmo:42043:1,2011-06-06T05:00:00Z,28.9818,-94.9186,2.0,14.32,11111222 
TABS,ioos:station:wmo:42043:1,2011-06-06T05:30:00Z,28.9818,-94.9186,2.0,14.27,11111222 
TABS,ioos:station:wmo:42043:1,2011-06-06T06:00:00Z,28.9818,-94.9186,2.0,14.23,11111222 
TABS,ioos:station:wmo:42043:1,2011-06-06T06:30:00Z,28.9818,-94.9186,2.0,14.15,11111222 
TABS,ioos:station:wmo:42043:1,2011-06-06T07:00:00Z,28.9818,-94.9186,2.0,14.2,11111222 
TABS,ioos:station:wmo:42043:1,2011-06-06T07:30:00Z,28.9818,-94.9186,2.0,14.19,11111222 
TABS,ioos:station:wmo:42043:1,2011-06-06T08:00:00Z,28.9818,-94.9186,2.0,14.26,11111222 
TABS,ioos:station:wmo:42043:1,2011-06-06T08:30:00Z,28.9818,-94.9186,2.0,14.22,11111222 
TABS,ioos:station:wmo:42043:1,2011-06-06T09:00:00Z,28.9818,-94.9186,2.0,14.13,11111222 
TABS,ioos:station:wmo:42043:1,2011-06-06T09:30:00Z,28.9818,-94.9186,2.0,14.17,11111222 
TABS,ioos:station:wmo:42043:1,2011-06-06T10:00:00Z,28.9818,-94.9186,2.0,14.04,11111222 
TABS,ioos:station:wmo:42043:1,2011-06-06T10:30:00Z,28.9818,-94.9186,2.0,14.03,11111222 
TABS,ioos:station:wmo:42043:1,2011-06-06T11:00:00Z,28.9818,-94.9186,2.0,13.79,11111222 
TABS,ioos:station:wmo:42043:1,2011-06-06T11:30:00Z,28.9818,-94.9186,2.0,13.71,11111222 
TABS,ioos:station:wmo:42043:1,2011-06-06T12:00:00Z,28.9818,-94.9186,2.0,13.71,11111222 
TABS,ioos:station:wmo:42043:1,2011-06-06T12:30:00Z,28.9818,-94.9186,2.0,13.59,11111222 
TABS,ioos:station:wmo:42043:1,2011-06-06T13:00:00Z,28.9818,-94.9186,2.0,13.78,11111222 
TABS,ioos:station:wmo:42043:1,2011-06-06T13:30:00Z,28.9818,-94.9186,2.0,13.64,11111222 
TABS,ioos:station:wmo:42043:1,2011-06-06T14:00:00Z,28.9818,-94.9186,2.0,13.63,11111222 
TABS,ioos:station:wmo:42043:1,2011-06-06T14:30:00Z,28.9818,-94.9186,2.0,13.49,11111222 
TABS,ioos:station:wmo:42043:1,2011-06-06T15:00:00Z,28.9818,-94.9186,2.0,13.71,11111222 
TABS,ioos:station:wmo:42043:1,2011-06-06T15:30:00Z,28.9818,-94.9186,2.0,13.67,11111222 
TABS,ioos:station:wmo:42043:1,2011-06-06T16:00:00Z,28.9818,-94.9186,2.0,13.65,11111222 
TABS,ioos:station:wmo:42043:1,2011-06-06T16:30:00Z,28.9818,-94.9186,2.0,13.69,11111222 
TABS,ioos:station:wmo:42043:1,2011-06-06T17:00:00Z,28.9818,-94.9186,2.0,13.75,11111222 
TABS,ioos:station:wmo:42043:1,2011-06-06T17:30:00Z,28.9818,-94.9186,2.0,13.67,11111222 
TABS,ioos:station:wmo:42043:1,2011-06-06T18:00:00Z,28.9818,-94.9186,2.0,13.7,11111222 
TABS,ioos:station:wmo:42043:1,2011-06-06T18:30:00Z,28.9818,-94.9186,2.0,13.7,11111222 
TABS,ioos:station:wmo:42043:1,2011-06-06T19:00:00Z,28.9818,-94.9186,2.0,13.74,11111222 